Weather Roundup
Issued by NWS

Home | Current Version | Previous Version | Graphics & Text | Print | Product List | Glossary Off
Versions: 1 2 3 4 5 6 7 8 9 10 11 12 13 14 15 16 17 18 19 20 21 22 23 24 25 26 27 28 29 30 31 32 33 34 35 36 37 38 39 40 41 42 43 44 45 46 47 48 49 50

000
NZUS93 KARX 181759
HRRWXR

CURRENT HOURLY OBSERVATIONS ACROSS
MUCH OF THE UPPER MISSISSIPPI VALLEY
NATIONAL WEATHER SERVICE LA CROSSE WI
1200 PM CST MON DEC 18 2017


...SOUTHEAST MINNESOTA...


CITY           SKY/WX    TMP DP  RH WIND       PRES   REMARKS
ROCHESTER      CLOUDY    31  29  92 S12       29.77F WCI  22
ROCHESTER/MAYO FAIR      31  29  93 S8        29.79F WCI  24
WINONA         CLOUDY    34  30  86 S5        29.84F WCI  30
AUSTIN         NOT AVBL
ALBERT LEA     NOT AVBL
DODGE CENTER   CLOUDY    30  30 100 S7        29.77F FOG     WCI  23
PRESTON        CLOUDY    30  29  96 S8        29.80F FOG     WCI  22
OWATONNA       CLOUDY    36  30  80 S16       29.76F WCI  26
FARIBAULT      CLOUDY    34  28  80 S7        29.75F WCI  28
$$

...ELSEWHERE IN MINNESOTA...


CITY           SKY/WX    TMP DP  RH WIND       PRES   REMARKS
MINNEAPOLIS    CLOUDY    35  28  75 SW10      29.74F WCI  27
INTNL FALLS    LGT SNOW  33  28  81 SW9       29.50F VSB 3/4 WCI  25
DULUTH         CLOUDY    28  27  96 SW13      29.60F FOG     WCI  17
RED WING       CLOUDY    34  27  75 S9        29.77F WCI  26
REDWOOD FALLS  CLOUDY    42  31  64 SW14      29.71F
MANKATO        CLOUDY    36  29  75 SW10      29.75F WCI  28
WORTHINGTON    SUNNY     38  29  70 SW16      29.75F WCI  29
FAIRMONT       CLOUDY    38  30  73 SW14      29.77F WCI  30
$$

...SOUTHWEST WISCONSIN...


CITY           SKY/WX    TMP DP  RH WIND       PRES   REMARKS
LA CROSSE      CLOUDY    33  29  85 S13       29.84F WCI  24
PRAIRIE DU CHI MOSUNNY   36  28  71 SW8       29.89F WCI  30
BOSCOBEL       MOSUNNY   37  28  70 SW12G21   29.88F WCI  29
LONE ROCK      CLOUDY    37  30  75 W9        29.87F HAZE    WCI  30
PLATTEVILLE    CLOUDY    35  33  94 SW12      29.90F WCI  27
FORT MC COY    CLOUDY    31  28  90 S5        29.85F WCI  26
CAMP DOUGLAS   CLOUDY   N/A N/A N/A SW8       29.84F
MAUSTON-NEW LI CLOUDY    32  29  88 W8        29.85F FOG     WCI  25
VIROQUA        CLOUDY    32  31  96 CALM      29.83F
WIS DELLS      CLOUDY    33  29  84 SW13G20   29.84F WCI  24
$$

...ELSEWHERE IN WISCONSIN...


CITY           SKY/WX    TMP DP  RH WIND       PRES   REMARKS
MILWAUKEE      CLOUDY    38  35  89 SW7       29.85F FOG     WCI  33
MADISON        CLOUDY    34  31  88 W7        29.86F FOG     WCI  28
GREEN BAY      CLOUDY    32  28  85 SW12      29.81F WCI  23
EAU CLAIRE     CLOUDY    31  28  89 S9        29.76F FOG     WCI  23
BLACK RVR FLS  CLOUDY    32  29  90 CALM      29.83F FOG
MEDFORD        FOG       28  27  98 SW8       29.76F VSB 1   WCI  19
WAUSAU         CLOUDY    28  27  96 SW9       29.76F FOG     WCI  19
WIS RAPIDS     CLOUDY    29  27  92 W10       29.82F FOG     WCI  20
MARSHFIELD     CLOUDY    29  28  96 SW9       29.78F FOG     WCI  20
RICE LAKE      CLOUDY    31  29  90 CALM      29.75F
$$

...NORTHEAST IOWA...


CITY           SKY/WX    TMP DP  RH WIND       PRES   REMARKS
WATERLOO       MOSUNNY   40  29  64 SW14      29.86F WCI  32
DUBUQUE        MOSUNNY   34  31  88 SW14      29.89F FOG     WCI  25
DECORAH        CLOUDY    34  30  86 SW8       29.83F WCI  27
MASON CITY     CLOUDY    37  29  72 SW15      29.81F WCI  28
CHARLES CITY   NOT AVBL
OELWEIN        CLOUDY    37  32  81 SW14      29.88F WCI  29
$$

...ELSEWHERE IN IOWA...


CITY           SKY/WX    TMP DP  RH WIND       PRES   REMARKS
DES MOINES     MOSUNNY   44  34  67 SW21      29.90F
IOWA CITY      SUNNY     42  35  76 SW9       29.95F
FORT DODGE     SUNNY     41  30  65 SW15      29.84F
MARSHALLTOWN   MOSUNNY   39  33  79 SW17      29.87F WCI  30
CEDAR RAPIDS   SUNNY     40  33  76 SW13      29.90F WCI  32
$$

...NORTHERN ILLINOIS...


CITY           SKY/WX    TMP DP  RH WIND       PRES   REMARKS
CHICAGO-OHARE  CLOUDY    42  36  79 W14G26    29.89F
CHICAGO-MIDWAY LGT RAIN  43  41  93 W16       29.91F FOG
MOLINE         MOSUNNY   44  35  70 W15       29.94F
ROCKFORD       CLOUDY    39  32  76 W12       29.92F WCI  32
PEORIA         CLOUDY    47  42  83 W14G23    29.97F
$$

NOTE: "FAIR" INDICATES FEW OR NO CLOUDS BELOW 12,000 FEET WITH NO
SIGNIFICANT WEATHER AND/OR OBSTRUCTIONS TO VISIBILITY. WIND
SPEEDS ARE IN MILES-PER-HOUR.




USA.gov is the U.S. government's official web portal to all federal, state and local government web resources and services.